Other Public Products
Issued by NWS Grand Forks, ND

Home | Current Version | Previous Version | Graphics & Text | Print | Product List | Glossary On
Versions: 1 2 3 4 5 6 7 8 9 10 11 12 13 14 15 16 17 18 19 20 21 22 23 24 25 26 27 28 29 30 31 32 33 34 35 36 37 38 39 40 41 42 43 44 45 46 47 48 49 50
000
FPUS83 KFGF 210210
OPUFGF
PRAIRIE TO PINES WEATHER ROUNDUP
NATIONAL WEATHER SERVICE EASTERN NORTH DAKOTA/GRAND FORKS ND
900 PM CDT MON APR 20 2015

 **SATELLITE DATA USED TO AUGMENT SKY COVER AT AUTOMATED STATIONS**
 *****  WEATHER ACROSS EASTERN NORTH DAKOTA  *****

CITY           SKY/WX    TMP DP  RH WIND       PRES   REMARKS
GRAND FORKS    CLOUDY    35  30  82 N14       29.64R
GRAND FORKS AF LGT RAIN  36  28  75 N20G26    29.65R
GRAND CITY NWS   N/A     32 N/A N/A VRB14       N/A  WCI  22
BUXTON         NOT AVBL
DEVILS LAKE    CLOUDY    37  27  65 N18       29.68S
FARGO          CLOUDY    37  31  78 N15       29.64R
WAHPETON ARPT  CLOUDY    36  32  87 NW14G20   29.64S
$$

 *****  WEATHER ACROSS CENTRAL AND WESTERN NORTH DAKOTA  *****

CITY           SKY/WX    TMP DP  RH WIND       PRES   REMARKS
JAMESTOWN      CLOUDY    40  26  57 N10       29.68S
BISMARCK       CLEAR     46   7  20 NW16      29.77R
MINOT          CLEAR     42  11  28 NW12      29.76R
MINOT AFB      CLEAR     43  13  28 N12       29.76R
GARRISON         N/A     42  11  28 NW15      29.77R
WILLISTON      CLEAR     40  14  34 NW5       29.81F
DICKINSON      CLEAR     41  15  35 NW7       29.80S
HETTINGER      PTCLDY    37  15  40 NW8       29.84R
$$

 *****  OTHER OBSERVATIONS NORTHEAST NORTH DAKOTA  *****

CITY           SKY/WX    TMP DP  RH WIND       PRES   REMARKS
WALHALLA       LGT RAIN  34  32  93 N18G30    29.68R WCI  23
LANGDON        CLOUDY    34  27  75 N35G45    29.67R WCI  19
CAVALIER       MIX PCPN  32  28  86 N25G33    29.66R WCI  19
GRAFTON        CLOUDY    36  30  80 N25G31    29.65R
CANDO          CLOUDY    37  27  65 N17       29.71R
FORT TOTTEN      N/A     40  27  60 N7        29.95S
ROLLA          CLOUDY    36  27  69 N22G29    29.72R
RUGBY          NOT AVBL
 ***** THE ABOVE OBSERVATIONS ARE NON NWS ARE NOT QUALITY
        CONTROLLED AND MAY MIS-REPORT RAIN FOR SNOW...
$$

 *****  OTHER OBSERVATIONS SOUTHEAST NORTH DAKOTA *****

CITY           SKY/WX    TMP DP  RH WIND       PRES   REMARKS
COOPERSTOWN    NOT AVBL
VALLEY CITY    CLOUDY    37  27  65 N15       29.67S
OAKES            N/A     39  28  65 NW16G22   29.69S
GWINNER        MOCLDY    39  28  65 NW17G24   29.69S
BUFFALO        NOT AVBL
WYNDMERE       NOT AVBL
 ***** THE ABOVE OBSERVATIONS ARE NON NWS ARE NOT QUALITY
       CONTROLLED AND MAY MIS-REPORT RAIN FOR SNOW...
$$

  *****  WEATHER ACROSS NORTHERN MINNESOTA  *****

CITY           SKY/WX    TMP DP  RH WIND       PRES   REMARKS
FLAG ISLAND    LGT SNOW  32  30  93 NW20      29.45S WCI  20
WARROAD        LGT SNOW  30  27  86 NW15G24   29.51R WCI  19
ROSEAU         LGT SNOW  32  27  80 NW15G24   29.53R WCI  22
HALLOCK        MIX PCPN  34  28  80 N24G37    29.62R WCI  21
THF RVR FALLS  CLOUDY    34  27  75 NW24G31   29.58R WCI  21
HALSTAD        NOT AVBL
FOSSTON        CLOUDY    30  27  86 NW18G31   29.57R WCI  18
BAUDETTE       CLOUDY    32  28  85 NW21G35   29.44R WCI  20
WASKISH        FLURRIES  34  30  86 W18       29.46S WCI  23
CROOKSTON      CLOUDY    34  30  86 N30G37    29.62S WCI  20
$$
  *****  WEATHER ACROSS CENTRAL AND WEST MINNESOTA  *****

CITY           SKY/WX    TMP DP  RH WIND       PRES   REMARKS
BEMIDJI        FLURRIES  32  28  86 NW20G29   29.49S WCI  20
PARK RAPIDS    FLURRIES  35  28  75 NW21G29   29.51R WCI  24
WADENA         LGT RAIN  32  27  80 NW16G29   29.54S WCI  21
DETROIT LAKES  MOCLDY    32  32 100 NW21G26   29.59S WCI  20
MOORHEAD       CLOUDY    36  30  80 N20       29.64S
FERGUS FALLS   DRIZZLE   34  32  93 NW20G28   29.64R WCI  22
ELBOW LAKE     LGT RAIN  34  33  94 NW18G28   29.62R WCI  23
MORRIS MN      CLOUDY    36  34  93 NW21G26   29.62S
STAPLES        CLOUDY    32  28  86 NW18G26   29.53S WCI  20
WHEATON        CLOUDY    37  28  70 NW16      29.66S
$$
  *****  WEATHER ELSEWHERE ACROSS MINNESOTA  *****

CITY           SKY/WX    TMP DP  RH WIND       PRES   REMARKS
DULUTH         LGT SNOW  33  28  81 W16G26    29.37S WCI  23
INTRNTL FALLS  LGT SNOW  33  31  92 W10       29.37S FOG     WCI  25
ELY            LGT SNOW  32  30  93 W8        29.31S WCI  25
CLOQUET        LGT SNOW  34  28  80 W10G18    29.40F
BRAINERD       LGT SNOW  33  30  88 NW17G24   29.50S FOG     WCI  22
HIBBING        FLURRIES  33  28  81 NW15G22   29.37S WCI  23
ALEXANDRIA     CLOUDY    35  29  78 NW23G32   29.58S WCI  23
SAINT CLOUD    MIX PCPN  36  31  82 W18       29.54R
MINNEAPOLIS    CLOUDY    40  30  67 W17G25    29.53S
$$

  *****  WEATHER ACROSS SOUTH DAKOTA  *****

CITY           SKY/WX    TMP DP  RH WIND       PRES   REMARKS
SIOUX FALLS    PTCLDY    45  18  34 NW10      29.70R
BROOKINGS      CLEAR     39  27  60 N10       29.69R
WATERTOWN      PTCLDY    39  25  57 NW17      29.68R
HURON          CLEAR     42  11  28 NW12      29.72R
SISSETON         N/A     39  31  72 NW18G25   29.66R
ABERDEEN       CLEAR     41  25  53 N12       29.72R
MITCHELL       CLEAR     47   5  18 NW15      29.74R
PIERRE         CLOUDY    48  15  26 NW14      29.78R
MOBRIDGE       CLEAR     46  12  25 NW12      29.74R
RAPID CITY     CLOUDY    41  23  48 N10       29.85R
$$

  *****  SOME WEATHER IN NEARBY STATES *****

CITY           SKY/WX    TMP DP  RH WIND       PRES   REMARKS
GLASGOW MT     CLOUDY    52  19  27 SE5       29.80F
GREAT FALLS MT CLEAR     57  31  37 NE6       29.83S
CHEYENNE WY    CLEAR     43  24  47 N8        29.92R
SCOTTSBLUFF NE PTCLDY    46  26  45 N7        29.86R
OMAHA NE       PTCLDY    51  20  29 NW12      29.77R
DES MOINES IA  CLEAR     48  18  30 W8        29.71R
DAVENPORT IA   PTCLDY    39  35  86 SW7       29.66S
CHICAGO IL     PTCLDY    43  31  62 W12G21    29.60R
EAU CLAIRE WI  CLOUDY    39  27  62 W10       29.47S
LA CROSSE WI   CLOUDY    43  29  57 W13       29.54S
$$

  *****  SOME NATIONAL WEATHER *****

CITY           SKY/WX    TMP DP  RH WIND       PRES   REMARKS
LA GUARDIA NY  FOG       51  50  96 NE8       29.64R VSB 1/4
RALEIGH NC     CLOUDY    67  63  87 SW12G20   29.68R
ATLANTA GA     PTCLDY    65  48  54 W13       29.83R
NEW ORLEANS LA CLOUDY    70  53  54 NW8       29.95R
OKLAHOMA CITY  CLEAR     56  34  43 SE3       29.96R
ALBUQUERQUE NM MOCLDY    66  21  18 NW8       29.91R
SALT LAKE CITY PTCLDY    64  25  22 N7        29.86S
LOS ANGELES CA PTCLDY    59  52  77 W9        29.85S
BOISE ID       CLEAR     69  28  21 N8        29.81F
SEATTLE WA     CLEAR     70  39  32 N8        29.84F
$$

*** WEATHER ACROSS MANITOBA...SASKATCHEWAN AND ONTARIO ***
                ***ONTARIO***

CITY           SKY/WX    TMP DP  RH WIND       PRES   REMARKS
GERALDTON      LGT SNOW  32  32 100 NW7       29.09S
THUNDER BAY    LGT RAIN  36  34  93 W10       29.22S
SIOUX LOOKOUT  LGT SNOW  32  32 100 N10G20    29.29R WCI  24
TORONTO        NOT AVBL
BIG TROUT LK   LGT SNOW  25  23  93 NE17G30   29.52S WCI  11
PICKLE LAKE    LGT SNOW  28  27  93 NE9       29.29R WCI  20
DRYDEN         FLURRIES  32  32 100 N10G18    29.32S WCI  24
KENORA         LGT SNOW  30  28  93 N15G24    29.42R FOG     WCI  19
$$
                *** MANITOBA***

CITY           SKY/WX    TMP DP  RH WIND       PRES   REMARKS
BRANDON        MOCLDY    36  25  64 N16G32    29.79R
DAUPHIN        CLOUDY    37  27  65 N14G21    29.83R
ISLAND LAKE    LGT SNOW  27  25  93 N17G30    29.75R WCI  14
PILOT MOUND      N/A     34  25  69 NW22G32     N/A  WCI  22
THE PAS        MOCLDY    37  27  65 NE6       29.93S
THOMPSON       PTCLDY    32  27  80 NE9       29.98R WCI  24
WINNIPEG       CLOUDY    32  27  80 N21G31    29.64S WCI  20
LYNN LAKE      CLEAR     37  12  35 E5        29.98R
CHURCHILL      CLOUDY    21  19  93 NE16      30.15R WCI   7
GILLAM         PTCLDY    27  14  59 NE15      30.00R WCI  15
$$
                ***SASKATCHEWAN***

CITY           SKY/WX    TMP DP  RH WIND       PRES   REMARKS
ESTEVAN        CLOUDY    43  23  45 N15       29.81S
KINDERSLEY     PTCLDY    55  25  30 N9        29.78R
LLOYDMINSTER   PTCLDY    54  25  32 E18G24    29.81R
PRINCE ALBERT  PTCLDY    36  25  64 NE3       29.90R
REGINA         PTCLDY    41  25  52 E14G21    29.82R
YORKTON        MOCLDY    39  21  48 NE10      29.83R



USA.gov is the U.S. government's official web portal to all federal, state and local government web resources and services.